Theta_e
309 312 313 312 310 311 312 312 313 314 314 314 319 323 320 320 318 315 315 312 308 311 318 318 316 317 315 313 308 308 310 308 309 309 307 307 307 306 305 303 303 302 302 301 300 299 299 298 297 296 296 294 293 292 292 290 287 287 286 285 285 284 284 285 284 283 283 284 283 283 283 282 283 282 282 282 282 282 282 282 282 282 282 281 282 282
309 312 313 311 309 309 310 312 316 317 317 316 317 320 319 316 317 315 313 312 308 309 318 317 313 314 314 313 309 308 309 308 309 309 307 307 306 306 305 304 303 302 302 301 300 299 298 297 297 296 295 294 293 292 292 290 286 287 287 284 284 284 283 284 283 282 283 283 283 283 282 282 282 282 282 281 281 281 281 281 281 281 281 281 281 281
313 313 313 310 309 309 310 313 319 319 318 318 316 319 319 315 316 317 314 313 309 310 317 316 312 311 311 311 309 308 309 308 309 309 307 307 306 306 305 304 303 303 302 300 299 299 298 297 296 296 295 294 293 292 292 290 286 287 286 284 284 283 283 283 282 282 283 282 282 282 282 282 282 282 281 281 281 281 281 281 281 281 281 281 281 281
316 313 312 309 308 311 312 312 319 322 318 316 318 319 318 315 314 317 317 314 312 311 313 314 312 311 311 311 308 308 309 309 309 309 307 307 306 305 306 305 303 302 301 300 299 299 297 297 296 296 295 294 293 292 292 289 287 286 285 283 283 283 283 283 282 283 283 282 282 282 281 281 281 281 281 281 281 281 281 281 281 281 281 281 281 281
314 310 309 312 312 314 315 312 315 320 318 314 315 316 314 314 312 313 315 314 314 314 310 310 315 318 316 313 311 309 309 309 309 309 308 307 307 306 306 305 304 302 301 300 299 299 297 297 296 296 295 294 293 292 291 288 287 285 284 283 283 283 283 283 282 283 282 282 282 282 282 281 281 281 281 280 280 281 281 281 281 281 281 281 281 281
313 308 310 317 319 317 315 313 311 313 318 316 312 311 309 310 310 311 314 314 318 319 312 310 317 322 318 313 313 312 310 310 309 308 309 307 307 306 305 305 303 302 302 301 299 299 297 296 296 295 294 293 292 291 290 288 287 285 283 283 283 283 283 282 283 283 282 282 282 282 282 281 281 281 280 280 280 280 280 280 281 281 281 281 281 281
312 307 309 315 318 316 314 313 309 309 319 319 311 310 308 307 308 310 312 313 317 317 311 311 314 318 318 314 315 314 312 312 310 308 308 307 307 306 305 305 303 303 302 301 299 298 297 296 296 295 294 293 292 291 290 287 286 284 283 283 283 283 283 282 283 282 282 282 282 281 281 280 280 280 280 280 280 280 280 280 280 280 281 280 280 280
312 310 311 313 315 317 315 314 310 309 316 317 310 309 308 307 308 309 311 312 315 314 313 315 313 313 318 319 316 313 312 312 312 311 308 307 307 306 305 305 303 303 302 300 299 298 297 296 296 295 294 293 292 291 289 286 285 284 283 283 283 283 283 282 282 282 282 282 281 281 281 280 280 280 280 280 280 280 280 280 280 280 280 280 280 280
309 311 312 312 315 317 315 312 310 309 314 315 310 308 308 308 309 310 311 313 313 313 318 321 316 312 318 321 315 311 311 312 315 316 310 307 307 306 305 305 303 303 301 300 299 298 297 296 296 295 294 293 292 291 288 286 285 284 283 283 283 283 282 282 282 282 282 281 281 281 280 280 280 280 280 280 280 280 280 280 280 280 280 280 280 279
307 309 309 311 313 314 315 313 309 310 314 312 305 305 307 307 309 311 312 314 313 315 321 321 314 312 316 320 316 310 312 315 317 316 309 306 307 306 305 305 303 302 301 300 299 298 297 296 296 295 293 293 292 291 288 285 284 283 283 283 283 282 282 282 282 282 281 281 281 280 280 280 280 280 280 280 279 279 280 280 280 280 279 280 279 279
307 308 307 309 310 309 311 311 307 308 310 309 307 310 312 309 310 312 311 313 317 321 324 318 312 312 314 319 318 314 315 314 315 315 310 307 307 306 305 304 303 302 300 299 298 298 297 296 296 295 293 292 292 291 289 285 284 283 283 283 283 282 282 282 282 282 281 281 281 280 280 279 279 279 279 279 279 279 279 279 279 279 279 279 279 279
313 314 309 308 309 307 310 312 310 308 307 310 314 315 318 316 315 317 317 318 319 322 324 318 312 311 313 319 321 318 318 313 310 313 311 307 306 306 305 304 302 301 300 299 298 298 297 296 296 294 293 292 291 291 289 285 283 283 283 283 283 282 282 282 282 281 281 281 280 280 280 279 279 279 279 279 279 279 279 279 279 279 279 279 279 279
318 315 309 309 309 307 312 317 316 314 312 313 315 316 320 321 319 321 322 320 318 318 320 316 311 312 315 319 319 318 319 312 307 309 309 306 307 306 305 304 302 301 300 299 298 298 297 296 296 295 294 293 292 291 289 286 283 283 283 283 282 282 282 282 282 281 281 281 280 280 279 279 279 279 279 279 279 279 279 279 279 278 278 279 279 279
322 317 312 314 311 306 310 315 315 316 316 314 312 315 320 319 318 322 319 317 317 318 317 312 310 314 316 317 318 317 315 311 307 307 308 307 307 307 306 304 302 301 300 299 298 298 297 296 296 295 294 293 292 291 288 287 285 283 283 283 282 282 282 282 281 281 281 280 280 280 279 279 279 279 279 278 278 278 278 278 278 278 278 278 278 278
320 319 315 314 310 307 309 309 309 311 314 313 311 313 317 316 316 320 318 317 318 317 316 313 312 314 315 317 318 313 309 308 309 308 307 308 307 307 306 304 302 301 299 299 298 298 297 296 296 295 294 294 292 290 288 287 286 283 283 283 282 282 282 282 281 281 281 280 280 280 279 279 279 279 278 278 278 278 278 278 278 278 278 278 278 278
316 316 312 309 306 306 308 306 305 309 315 315 313 316 317 315 314 316 316 316 315 314 316 317 317 316 315 315 312 309 309 308 307 308 308 307 307 307 307 304 302 301 300 299 298 298 297 296 296 295 294 294 292 291 289 288 287 284 283 283 282 282 282 282 281 281 280 280 280 280 279 279 279 278 278 278 278 278 278 278 278 278 278 278 278 278
316 317 314 310 307 305 306 305 304 308 314 316 316 316 311 309 312 314 315 314 311 314 317 317 318 317 315 316 312 309 312 311 308 308 308 308 308 308 307 304 301 300 300 299 298 298 297 296 296 295 295 294 292 291 289 289 288 285 282 283 282 282 282 282 281 281 280 280 280 280 279 279 279 278 278 278 278 278 278 278 278 277 277 277 277 277
310 317 319 312 310 307 303 304 306 305 309 315 317 313 307 307 313 312 313 315 314 316 318 315 316 315 313 317 317 313 315 316 312 309 307 308 308 308 307 304 301 300 300 299 298 298 297 296 295 295 294 294 292 291 290 290 288 284 282 282 282 282 282 282 281 281 280 280 280 280 279 279 279 278 278 278 278 278 277 277 277 277 277 277 277 277
305 317 321 312 311 310 303 305 310 307 306 310 310 308 308 313 316 314 313 316 315 316 318 316 315 314 315 321 320 316 316 315 313 312 310 309 308 308 306 303 301 301 300 299 299 298 297 296 295 295 294 294 292 291 290 290 287 283 282 282 282 282 282 281 281 281 280 280 280 280 279 279 279 278 278 278 278 277 277 277 277 277 277 277 277 277
305 313 320 315 310 308 306 309 316 314 308 308 308 309 313 314 314 313 313 314 315 316 317 317 316 315 319 325 320 315 315 313 313 315 311 308 308 308 306 303 301 301 301 300 299 298 297 296 295 295 294 294 292 291 291 290 286 282 282 282 281 281 281 281 281 281 280 280 280 279 279 279 279 278 278 278 277 277 277 277 277 277 277 276 276 276
308 311 316 319 313 310 313 312 315 317 313 313 314 314 314 314 313 312 312 312 314 316 317 316 316 316 317 319 316 314 315 313 312 313 310 308 309 308 305 303 302 301 301 299 298 298 297 296 296 295 294 294 293 291 290 289 286 282 282 282 281 281 281 281 281 280 280 280 280 279 279 279 279 278 278 278 277 277 277 277 277 276 276 276 276 276
309 310 311 318 318 318 319 309 304 308 310 314 316 315 316 316 316 316 314 314 313 314 316 316 315 315 314 315 315 314 312 310 310 310 308 308 309 308 306 304 302 301 300 299 298 297 297 296 296 295 294 294 292 291 290 288 285 282 282 282 281 281 281 281 281 280 280 280 280 279 279 279 279 278 278 278 277 277 277 277 276 276 276 276 276 276
304 306 309 316 316 314 310 302 299 301 305 309 309 310 314 315 316 317 317 316 313 312 313 313 313 316 315 311 311 311 309 308 309 309 308 309 309 307 306 303 301 301 300 299 298 297 297 297 296 295 294 293 292 291 289 288 285 282 282 282 281 281 281 281 281 280 280 280 280 279 279 279 279 278 278 278 277 277 276 276 276 276 276 276 275 275
303 306 310 317 318 312 307 302 301 300 302 307 308 308 310 312 315 317 314 312 311 312 313 313 314 317 314 307 306 309 309 308 309 309 308 309 308 307 305 303 301 301 299 299 298 298 297 297 296 295 294 293 292 290 289 288 285 282 281 282 281 281 281 281 281 280 280 280 280 279 279 279 278 278 278 278 277 277 276 276 276 276 275 275 275 275
306 309 310 314 316 315 314 312 310 307 307 310 312 310 309 310 312 311 309 307 310 313 313 314 317 318 313 309 308 308 307 306 307 308 308 309 309 307 305 303 301 301 299 299 298 298 298 297 296 295 294 293 292 290 289 288 285 282 281 282 281 281 281 281 281 280 280 280 280 279 279 278 278 278 278 277 277 277 276 276 276 276 275 275 275 275
307 311 309 311 313 311 312 314 313 312 313 313 312 308 308 309 310 310 310 309 312 313 311 314 318 315 310 310 309 308 307 307 307 307 308 309 308 307 304 303 302 301 299 299 298 298 297 297 296 295 294 293 291 290 289 288 285 282 281 282 281 281 281 281 280 280 280 280 279 279 279 278 278 278 277 277 277 277 276 276 276 275 275 275 275 275
307 310 308 311 316 313 311 311 309 308 309 310 309 308 309 309 308 310 312 312 314 313 312 315 315 312 311 310 309 309 308 307 306 306 308 308 306 305 304 303 302 301 300 299 298 298 297 296 296 295 294 292 291 290 289 288 285 282 281 282 281 281 281 281 280 280 280 280 279 279 279 278 278 277 277 277 277 276 276 276 276 275 275 275 275 274
307 311 309 309 312 312 311 310 307 306 306 306 307 309 310 310 308 308 310 311 312 311 311 315 314 311 311 309 308 308 307 306 306 306 308 308 306 305 304 303 302 301 300 300 299 298 297 296 296 295 293 292 291 290 289 288 285 282 281 282 281 281 281 281 280 280 280 280 279 279 278 278 278 277 277 277 276 276 276 276 276 275 275 275 274 274
305 309 308 307 309 311 310 309 306 305 306 305 305 306 308 309 308 308 308 308 309 310 310 312 311 309 309 308 307 307 306 306 306 306 308 308 307 306 305 304 303 301 300 299 299 298 297 296 295 294 293 292 291 290 289 287 283 282 282 282 281 281 281 281 280 280 280 280 279 279 278 278 278 277 277 276 276 276 276 275 275 275 275 275 274 274
302 311 310 307 309 309 308 309 308 308 309 308 307 307 308 308 308 308 307 306 306 308 308 307 307 306 306 306 306 305 306 306 307 308 309 308 307 306 305 304 303 301 300 299 298 298 296 296 295 294 292 291 291 290 288 285 282 281 281 281 281 281 281 281 280 280 280 280 279 279 278 278 278 277 277 276 276 276 276 275 275 275 275 275 274 274
300 311 311 307 310 310 311 314 313 311 311 310 308 308 307 307 307 306 305 304 305 307 307 305 305 306 305 305 306 306 307 308 308 309 309 308 307 306 304 304 303 301 300 299 298 297 296 295 294 293 292 291 290 289 286 283 282 282 281 281 281 281 281 281 280 280 280 279 279 279 278 278 277 277 277 276 276 276 275 275 275 275 275 274 274 274
300 308 312 309 309 311 314 315 312 309 309 310 311 314 312 310 312 312 308 306 308 310 310 307 308 310 308 306 306 307 308 308 308 308 308 307 307 306 305 304 303 301 300 299 298 297 296 295 294 293 291 291 290 287 284 282 282 281 281 281 281 281 281 281 280 280 280 279 279 279 278 278 277 277 277 276 276 276 275 275 275 275 274 274 274 274
302 306 310 308 308 315 317 312 309 308 311 315 317 320 319 315 316 316 312 310 309 309 311 312 311 310 307 306 308 309 307 307 308 308 308 308 307 306 305 304 303 301 300 298 298 296 295 295 294 292 291 290 289 286 283 282 281 281 281 281 281 281 281 281 280 280 279 279 279 278 278 277 277 277 276 276 276 275 275 275 275 274 274 274 274 274
303 304 307 306 308 317 317 311 309 310 313 316 317 317 316 313 315 317 315 315 311 307 309 312 310 308 307 307 309 309 308 307 308 308 308 308 307 305 305 304 303 301 300 298 297 296 295 295 293 292 290 289 288 285 284 282 281 281 281 281 281 281 281 280 280 280 279 279 279 278 278 277 277 276 276 276 275 275 275 275 274 274 274 274 274 274
306 305 307 307 307 312 315 311 310 311 314 316 314 311 310 309 312 315 314 315 314 309 309 311 309 308 308 307 308 308 308 308 308 309 309 308 307 306 305 304 302 301 299 298 297 295 295 294 293 291 290 289 288 286 285 283 282 281 281 281 281 281 281 281 280 279 279 279 279 278 278 277 276 276 275 275 275 275 275 274 274 274 274 273 273 273
307 306 307 308 308 310 312 309 307 309 313 312 311 310 308 309 311 312 312 314 315 314 312 311 310 307 306 308 309 308 308 308 308 309 308 307 306 305 304 303 302 300 299 297 296 295 295 294 293 291 290 289 287 286 284 283 282 281 281 281 281 281 281 280 280 279 279 279 278 278 277 277 276 276 275 275 275 275 274 274 274 274 274 273 273 273
304 306 305 307 308 308 309 310 310 310 311 314 316 312 309 311 312 311 311 312 311 310 309 311 311 308 305 308 309 307 308 308 307 308 307 306 305 304 303 303 302 300 299 297 296 295 295 294 293 291 290 289 287 285 284 283 282 282 281 281 281 281 281 280 280 279 279 278 278 278 277 277 276 275 275 275 274 274 274 274 274 274 273 273 273 273
299 301 303 305 308 308 308 311 313 311 311 318 320 312 308 309 308 307 309 311 309 307 307 309 310 308 305 307 307 307 308 308 308 308 307 305 305 304 303 302 301 300 298 297 296 295 295 294 293 291 289 288 287 286 285 283 282 282 281 281 281 281 280 280 280 279 279 278 278 277 277 276 276 275 275 275 274 274 274 274 273 273 273 273 272 272
298 300 302 303 307 309 307 309 313 311 310 318 320 312 307 308 307 306 309 313 313 310 308 308 308 306 306 307 306 307 309 310 309 308 306 306 305 304 303 302 301 300 298 297 296 295 295 295 293 291 289 288 288 287 285 283 282 282 282 281 281 281 280 280 280 279 279 278 278 277 277 276 276 275 275 275 274 274 273 273 273 273 273 272 272 272
300 301 303 304 308 309 307 309 313 311 311 317 316 310 307 307 308 308 310 314 315 311 309 309 307 307 307 307 306 307 309 310 309 307 307 307 305 304 304 303 301 300 298 297 297 295 295 295 294 291 290 289 288 287 286 284 282 282 282 281 281 280 280 280 279 279 278 278 277 277 276 276 276 275 275 275 274 274 273 273 273 272 272 272 272 272
304 303 303 306 309 308 306 309 311 311 314 315 311 307 307 306 308 310 310 311 311 308 308 308 307 307 307 306 307 308 308 308 308 308 307 307 305 305 304 303 301 300 298 298 297 295 295 295 294 292 290 289 288 287 286 285 283 282 281 281 280 280 280 280 279 279 278 278 277 277 276 276 275 275 275 275 274 274 273 273 272 272 272 272 272 272
309 306 304 305 308 308 307 309 310 311 312 310 307 306 306 306 310 311 310 308 307 306 307 307 307 307 307 306 306 307 307 307 308 308 307 306 306 305 303 302 301 300 299 298 297 296 295 295 294 292 291 289 289 288 287 286 284 282 281 281 280 280 280 279 279 278 278 278 277 277 276 276 275 275 275 275 274 273 273 273 272 272 272 272 272 272
310 311 311 311 310 308 306 308 311 313 312 307 306 308 307 308 311 310 306 306 307 306 306 306 307 307 306 306 307 306 307 307 307 307 307 306 305 304 303 302 301 300 299 298 297 296 295 294 294 293 291 290 289 288 288 286 284 283 282 281 280 280 279 279 279 278 278 278 277 277 276 276 275 275 275 274 274 273 273 273 272 272 272 272 272 272
309 309 314 315 311 309 311 313 314 313 311 306 306 309 309 308 308 307 305 306 306 306 306 306 307 307 307 307 306 306 307 307 307 307 306 306 305 304 303 302 301 300 299 298 297 296 295 294 295 294 292 290 289 289 288 287 285 283 282 281 280 280 280 279 279 278 278 277 277 277 276 276 276 275 275 274 274 273 273 273 272 272 272 272 272 271
312 311 312 312 310 309 312 315 312 307 306 306 306 308 307 306 306 306 306 306 306 306 307 307 307 307 307 306 306 306 306 306 306 306 306 306 305 304 302 302 301 300 299 298 297 296 295 295 295 294 292 290 289 289 288 287 286 284 282 281 280 280 280 279 279 278 278 277 277 277 276 276 276 276 275 274 274 274 273 273 272 272 272 272 272 271
307 305 306 308 309 307 306 308 307 305 306 307 306 306 306 306 306 306 306 306 307 307 307 307 307 307 307 306 306 306 306 305 305 305 305 306 305 303 302 301 300 299 299 298 297 296 295 295 295 294 292 290 289 289 288 287 286 284 281 281 281 280 280 279 279 278 278 277 277 277 276 276 276 276 275 274 274 274 273 273 272 272 272 272 272 270
305 303 305 307 308 306 306 306 305 304 305 306 305 305 306 306 306 306 307 307 307 307 307 307 307 307 306 306 306 305 305 305 305 305 306 306 305 303 302 301 300 299 299 298 297 296 296 295 295 294 292 291 290 289 288 288 286 284 282 281 281 280 280 279 279 278 278 277 277 276 276 276 276 276 275 274 274 274 273 273 272 272 272 272 271 270
307 304 306 308 307 305 305 305 303 303 305 305 304 306 306 306 307 307 307 307 307 307 307 307 307 307 306 305 305 305 304 304 305 306 306 306 304 303 301 300 300 299 298 298 297 296 296 295 295 294 293 291 290 289 289 288 286 284 283 281 281 280 280 279 279 278 278 277 277 276 276 276 275 275 275 275 274 273 272 272 272 272 272 272 271 270
305 304 306 308 306 304 304 304 303 304 305 304 305 306 305 306 307 306 306 307 306 306 306 306 306 306 305 305 305 304 304 305 306 306 306 305 304 303 301 300 299 299 298 298 297 296 296 296 295 294 294 292 290 290 289 288 286 285 283 282 281 280 280 279 279 278 278 277 277 276 276 276 275 275 274 274 274 274 273 272 271 271 271 271 271 270
303 305 305 305 306 307 305 305 304 305 305 305 305 306 305 306 306 306 306 306 305 306 306 305 305 305 305 305 305 305 305 306 307 307 307 306 304 303 301 300 299 299 298 297 297 296 296 296 295 295 294 293 291 290 289 288 286 285 283 282 281 281 280 280 279 278 278 277 277 277 276 276 275 275 274 274 274 274 273 272 271 271 271 271 270 270
303 305 304 306 308 308 305 305 305 304 304 305 305 305 306 306 306 306 306 306 306 306 305 305 305 305 305 305 305 305 305 306 306 306 307 306 305 303 301 300 300 299 298 297 297 296 296 296 296 295 295 294 293 291 290 288 287 285 283 282 282 281 280 280 279 278 278 277 277 277 277 276 276 275 274 274 274 273 273 273 272 271 271 271 270 270
Wind_Speed
15 8 6 4 3 5 5 3 3 5 2 3 4 4 4 2 2 4 3 3 2 3 5 5 4 7 6 7 12 15 10 9 7 1 4 9 14 12 10 11 13 17 20 21 22 22 22 25 27 28 29 29 31 30 31 33 31 31 33 32 32 33 31 31 33 35 34 33 34 34 34 34 32 32 32 31 30 30 30 30 30 30 30 31 29 29
13 9 3 3 3 5 5 5 3 2 3 4 4 3 2 1 4 4 2 3 2 3 4 3 5 8 7 6 12 15 11 10 8 1 3 7 12 10 9 13 15 16 20 23 21 20 22 24 25 27 28 30 31 31 32 34 30 30 33 32 31 31 30 30 32 32 31 30 30 31 31 31 31 31 31 32 31 30 31 31 30 30 31 31 30 30
9 6 5 5 3 5 5 6 7 5 5 5 2 3 2 2 3 4 3 2 2 2 4 4 6 9 8 6 10 16 13 10 8 3 2 7 11 11 13 15 15 16 22 23 20 20 22 23 24 26 27 29 30 30 32 33 29 29 32 31 29 29 28 29 30 30 29 29 28 28 28 29 29 30 30 30 30 31 31 31 30 31 32 32 31 31
5 3 10 9 5 8 7 9 9 6 5 4 4 4 1 3 2 2 5 4 1 1 2 3 5 8 7 3 6 14 14 10 8 6 1 7 11 14 16 15 14 16 22 23 20 20 22 22 22 24 27 29 30 30 32 31 29 30 31 29 28 27 26 27 28 28 29 28 28 28 28 28 29 30 30 30 31 31 32 32 31 32 32 32 32 33
4 5 11 8 6 8 6 9 9 6 4 3 3 5 1 3 1 3 4 4 4 3 2 3 5 5 4 2 4 8 8 9 10 8 5 8 11 15 17 14 13 15 20 23 21 20 21 21 21 23 27 30 30 29 31 30 27 30 30 27 26 26 25 26 27 28 29 29 30 31 32 33 33 33 33 34 34 33 33 33 32 32 32 33 33 33
4 9 8 5 5 7 7 6 6 3 2 4 1 3 3 3 3 4 5 4 5 5 2 3 4 5 5 3 5 4 2 6 7 7 7 10 11 14 16 13 12 13 19 22 20 19 21 20 20 24 28 30 29 29 30 28 25 28 27 25 25 24 24 26 26 27 29 30 31 33 34 36 37 37 36 35 35 34 33 32 32 31 32 32 33 33
5 12 10 6 4 6 7 3 2 2 4 3 1 5 5 3 1 2 4 4 3 3 4 3 3 4 5 4 7 4 2 5 4 5 8 10 11 13 15 13 11 14 18 20 19 19 21 19 19 24 27 28 27 28 30 26 24 27 26 23 23 23 24 25 25 26 28 29 30 31 32 34 34 35 34 32 32 32 32 32 31 32 32 33 33 33
4 11 11 8 7 7 6 4 3 2 5 2 1 6 5 3 2 2 5 4 2 2 4 2 3 2 5 5 7 3 3 5 5 6 10 11 11 12 14 13 11 14 17 18 18 19 20 18 20 24 25 25 25 28 29 24 24 27 25 23 22 22 22 23 24 25 26 28 29 30 31 32 32 32 32 31 31 31 31 32 32 33 33 34 34 34
2 6 8 8 8 5 3 4 5 1 2 4 4 6 4 4 4 4 6 3 1 3 4 5 2 1 5 6 5 1 2 6 7 6 10 12 11 11 13 13 12 14 15 16 17 18 18 17 20 23 23 23 25 28 29 25 24 26 24 22 22 22 22 22 23 24 25 26 28 30 31 31 31 31 30 30 31 31 32 32 33 34 34 35 35 35
1 2 4 6 5 3 4 7 6 3 1 5 4 4 3 3 4 4 5 3 3 4 2 6 2 2 5 6 4 2 2 6 7 6 10 13 12 10 13 14 13 13 14 14 16 17 18 18 20 22 22 24 26 29 29 26 25 25 23 23 22 22 22 22 23 24 25 26 28 30 30 31 31 31 31 31 31 32 32 33 34 34 35 36 36 36
0 1 1 3 1 5 7 7 4 4 4 3 2 4 5 4 4 3 2 3 4 3 5 7 1 3 3 6 3 3 4 6 5 6 8 12 12 9 14 14 12 12 13 13 15 16 17 18 19 22 23 25 26 29 29 26 25 25 24 23 22 21 22 22 23 24 25 26 28 29 30 30 31 31 31 32 32 33 33 34 35 35 36 36 36 37
5 4 2 2 3 6 4 3 4 1 5 6 4 5 5 4 4 4 5 4 4 3 6 6 2 2 2 6 5 5 6 6 6 6 8 11 11 8 14 13 11 11 12 12 14 16 17 18 20 22 24 26 27 30 29 26 26 26 24 23 22 21 22 22 23 24 25 26 28 29 29 30 30 30 31 31 32 33 33 34 35 35 36 36 36 37
5 2 4 4 4 7 4 2 6 6 7 8 5 5 5 3 4 4 4 3 1 4 6 4 1 1 4 8 7 6 7 8 10 11 12 12 10 9 13 12 11 11 11 12 14 17 18 19 21 22 25 27 28 30 28 26 28 27 24 23 22 22 22 22 23 24 25 26 27 28 29 29 29 29 29 30 30 31 32 33 34 35 36 37 37 37
4 4 7 4 3 8 7 3 3 4 5 5 3 4 4 3 4 4 4 3 2 5 7 4 1 1 4 7 7 7 8 10 12 13 14 13 10 10 13 12 12 10 10 13 15 16 18 19 21 23 25 27 28 30 28 26 29 29 25 23 22 21 21 22 23 24 25 26 27 28 29 29 29 29 29 29 29 30 30 31 32 34 35 36 36 36
2 4 5 2 2 6 4 2 2 1 2 2 1 4 4 3 3 0 2 1 3 5 8 6 1 2 5 5 6 8 8 10 11 12 12 12 11 11 14 12 11 9 10 12 14 16 18 20 21 23 24 25 27 28 27 27 29 29 26 22 21 21 22 22 23 24 25 26 27 27 28 29 29 29 28 28 28 28 29 30 31 32 33 34 35 35
1 3 5 1 1 1 1 2 3 4 1 3 1 5 2 2 4 2 3 5 3 4 5 3 1 4 6 5 4 4 6 10 12 12 12 13 12 12 15 13 12 9 10 12 14 15 17 20 21 23 23 24 26 26 27 28 30 30 26 22 21 21 21 22 23 24 25 25 26 27 28 29 29 29 28 28 28 28 28 29 30 31 32 33 34 34
1 4 5 2 2 0 3 3 2 2 1 2 3 2 2 3 6 2 3 3 1 2 4 3 3 6 5 4 5 3 6 10 10 11 13 13 11 12 15 14 11 9 10 12 14 15 17 20 21 22 22 24 26 26 27 29 31 30 25 21 20 20 20 21 22 23 24 25 27 27 28 29 29 29 29 28 28 28 28 29 29 30 31 32 33 34
2 3 6 1 1 2 2 1 2 1 2 3 2 2 2 2 4 3 1 4 4 0 4 4 4 6 4 4 6 6 7 9 8 8 10 11 12 12 13 12 9 7 10 12 14 15 18 20 20 20 21 24 26 25 26 29 32 29 23 20 19 20 20 21 22 23 24 25 27 28 29 29 29 29 29 28 28 28 29 29 30 30 31 32 33 34
2 2 6 2 2 2 0 1 3 3 1 3 1 3 2 2 1 1 1 1 2 2 5 5 5 5 2 3 6 7 8 9 8 6 7 10 12 12 11 10 8 8 10 11 13 16 17 18 18 19 20 24 25 24 25 29 31 27 22 19 18 18 19 20 21 22 23 25 26 27 28 28 29 29 29 28 28 28 29 29 30 30 31 32 33 33
1 1 4 4 1 1 2 2 0 3 2 2 2 2 1 2 2 1 1 2 1 2 4 4 5 5 5 6 5 7 9 8 8 6 6 11 13 11 10 10 9 10 11 12 14 15 16 16 17 18 20 23 24 24 26 30 30 26 21 19 18 18 18 19 21 22 24 25 26 27 28 28 28 29 29 28 28 28 29 29 30 31 31 31 32 33
1 2 3 6 4 1 1 1 3 3 1 1 2 2 2 1 1 0 0 2 3 2 2 3 5 6 6 5 6 8 8 7 8 7 8 13 13 10 11 12 11 11 10 12 13 14 14 15 17 19 21 22 24 24 27 29 29 25 21 20 19 18 19 20 21 23 24 25 26 27 28 28 29 29 29 29 28 28 28 29 30 31 31 31 32 33
1 1 2 4 5 2 3 3 3 4 4 4 2 2 2 1 2 2 3 2 2 3 4 1 4 9 7 3 5 7 7 7 9 9 11 15 13 11 12 12 11 9 9 11 12 12 14 16 17 20 21 21 23 25 27 29 28 25 22 20 19 18 19 20 21 23 24 25 26 27 28 28 28 29 29 29 29 29 29 29 30 31 31 31 32 33
1 2 0 4 4 4 5 3 1 0 2 4 2 2 3 3 4 4 2 4 1 1 3 2 2 8 7 5 7 7 5 9 12 12 14 15 12 11 12 11 9 8 9 10 11 12 15 17 19 21 21 20 23 26 27 29 28 25 22 20 19 19 19 20 21 22 24 25 26 27 27 28 28 28 29 30 30 30 29 30 30 31 32 32 32 32
1 2 1 5 5 3 4 3 2 3 2 1 2 2 4 2 3 5 5 3 1 3 1 1 3 7 7 6 9 7 8 13 16 16 15 13 12 11 10 9 7 7 8 10 10 13 16 18 19 21 20 20 23 26 26 29 28 24 21 19 19 19 19 20 21 22 24 25 26 27 27 28 28 29 29 30 30 30 30 31 31 31 32 32 32 32
1 0 1 3 6 7 6 6 5 5 2 2 3 2 3 4 6 4 2 3 1 4 4 4 4 8 7 4 5 7 11 14 18 20 15 12 13 12 8 8 7 7 9 10 11 14 17 19 20 21 20 21 24 25 26 28 27 23 21 19 19 19 19 20 21 22 23 25 26 27 27 28 28 29 29 30 30 30 31 31 32 32 32 32 32 32
0 1 1 2 2 3 4 5 5 4 3 2 1 1 1 4 7 4 2 3 2 4 5 5 6 10 12 9 8 9 10 12 18 21 17 12 11 9 6 7 7 7 9 10 12 16 18 19 21 20 20 22 23 24 25 28 27 23 20 19 19 19 19 20 21 22 23 25 26 27 27 28 28 29 30 30 30 31 31 32 32 32 32 32 32 32
1 1 2 5 5 5 6 8 5 2 4 6 5 3 3 4 5 5 4 3 5 2 2 7 9 12 17 16 12 13 11 11 15 19 16 10 7 6 6 7 8 7 9 11 14 17 19 20 20 20 21 23 23 23 25 28 26 22 19 19 18 18 19 19 20 21 23 24 25 26 27 28 28 29 29 30 30 30 31 31 32 32 32 32 32 32
3 2 3 5 7 8 8 10 8 3 6 10 8 5 5 5 5 7 5 6 3 1 6 8 5 6 15 17 15 15 13 10 15 18 14 9 8 8 8 9 9 8 10 13 16 18 20 20 20 20 22 23 22 23 25 27 25 20 18 18 17 18 18 19 20 21 23 24 25 26 27 27 28 28 29 29 30 30 31 31 31 32 32 32 32 32
4 2 4 3 7 10 10 11 10 5 7 9 8 8 6 6 9 10 11 8 5 3 11 11 7 9 16 18 16 16 16 15 18 18 13 11 12 11 10 11 11 10 12 14 17 18 20 20 19 20 22 22 22 23 26 27 23 19 17 17 17 17 18 19 20 21 23 24 25 26 27 27 27 28 28 29 30 31 31 32 32 32 32 32 32 32
3 2 4 2 7 11 9 10 8 5 5 7 8 9 9 9 12 13 12 8 7 11 16 16 16 17 18 17 16 21 24 22 20 17 15 15 15 11 11 13 13 12 12 15 17 19 20 19 19 20 21 21 21 23 26 25 20 17 16 16 16 17 18 18 20 21 22 24 24 25 26 27 27 28 29 30 31 31 32 32 32 32 32 32 31 31
2 3 3 2 5 10 8 6 4 4 5 9 10 8 7 8 9 10 9 5 6 11 15 13 13 16 15 14 16 21 22 18 16 18 17 15 14 12 13 13 14 13 13 15 18 19 19 18 18 20 21 20 21 24 25 22 17 16 16 15 16 17 18 19 19 20 22 23 24 25 25 26 27 28 29 30 31 32 32 32 32 32 32 32 32 31
2 2 3 5 4 8 6 6 9 8 4 7 12 10 6 6 6 6 6 6 7 8 9 7 7 10 10 8 11 16 16 14 16 18 16 16 16 15 14 15 14 13 13 16 19 19 18 16 17 20 19 18 21 23 22 18 16 15 15 15 15 16 18 19 19 20 21 22 23 24 25 26 27 28 29 31 32 33 33 33 33 33 33 32 32 32
2 1 2 3 1 7 6 7 10 10 6 4 7 6 6 6 5 5 4 7 9 6 4 5 8 10 10 10 11 14 14 13 16 17 16 19 20 17 16 15 14 14 15 18 19 18 16 15 18 19 17 17 20 21 20 17 15 14 15 15 15 16 17 18 19 19 21 22 23 24 25 26 27 28 30 31 32 33 33 33 34 34 34 33 32 32
2 3 1 1 1 6 9 8 7 6 4 4 5 6 6 6 7 7 7 9 9 7 5 8 10 11 12 12 11 13 14 15 18 19 20 22 22 18 15 14 14 16 17 18 18 17 15 15 19 18 15 17 20 21 20 18 15 14 14 14 15 16 17 17 18 19 20 21 23 24 25 27 27 28 30 31 32 33 33 34 34 34 34 34 33 34
3 3 1 1 1 4 6 7 7 3 4 8 7 4 5 5 7 8 10 11 10 10 11 12 14 14 16 19 19 19 20 20 21 24 24 22 19 15 12 13 15 17 17 17 17 15 13 16 19 16 14 16 19 20 21 19 14 13 14 13 14 15 16 17 17 18 20 21 22 24 25 27 28 29 30 31 31 32 33 33 34 34 34 34 33 33
5 4 1 0 2 2 4 4 2 6 10 11 8 3 2 1 2 1 8 11 10 10 10 10 13 16 19 24 25 23 23 23 24 25 22 16 12 11 11 13 16 17 16 15 15 13 13 17 18 15 14 16 18 20 21 18 14 13 13 13 14 14 15 16 17 18 19 20 22 24 25 27 28 29 30 30 31 32 32 33 33 33 34 33 32 32
5 4 1 1 1 1 1 2 3 6 10 9 4 1 2 1 2 2 3 8 9 10 10 9 9 14 19 23 25 23 21 20 18 17 14 9 8 10 12 14 17 17 16 15 14 13 13 17 18 14 13 15 17 19 21 18 13 12 12 13 13 13 14 15 16 17 18 20 22 23 25 27 28 29 30 30 30 31 31 32 32 32 33 33 32 32
3 2 2 1 2 1 2 4 4 5 6 6 6 5 3 3 4 6 2 7 10 11 13 11 9 13 17 20 23 20 15 12 9 9 10 10 9 11 13 16 17 17 16 15 14 13 14 17 17 15 13 15 17 20 22 18 13 12 12 12 13 13 14 15 15 16 18 19 21 23 24 26 27 28 29 29 30 30 30 30 30 31 31 31 31 30
4 2 4 3 2 1 2 1 2 2 6 8 8 6 4 5 4 5 2 8 7 8 13 12 11 16 18 19 20 14 8 7 7 11 16 15 13 13 15 17 18 18 17 16 15 15 15 17 17 16 14 14 16 20 22 19 14 12 12 12 12 13 13 14 15 16 17 19 20 22 23 25 26 27 28 29 29 29 29 29 29 29 29 29 29 29
4 3 3 2 3 2 3 3 4 4 8 9 9 6 6 6 4 5 5 9 7 7 11 12 14 19 19 19 16 7 3 7 12 18 23 21 18 17 17 18 19 19 17 16 16 16 15 17 17 16 14 14 15 19 21 19 15 13 13 13 12 12 13 13 14 15 17 18 19 21 22 23 25 26 27 28 28 27 28 28 28 29 29 29 28 28
1 0 2 3 4 4 4 4 4 5 8 9 6 5 8 5 2 1 5 8 7 9 14 16 19 21 21 19 14 10 13 19 22 24 26 23 20 20 18 18 19 19 18 17 17 16 16 17 17 16 14 14 15 18 21 20 16 13 13 13 13 12 13 13 14 15 16 17 18 20 21 22 24 25 26 27 27 27 27 28 28 29 29 29 29 28
1 1 1 3 3 3 4 3 3 6 8 6 6 8 8 3 1 5 10 14 18 21 24 24 23 22 22 21 19 19 24 26 24 24 24 23 21 20 18 18 19 19 19 18 17 17 16 17 17 16 14 14 14 17 20 20 17 14 13 13 13 13 13 13 14 15 15 17 18 19 20 22 23 24 25 25 26 27 27 27 28 28 28 28 28 29
4 3 2 3 4 2 1 1 2 6 6 10 10 5 6 6 8 16 20 26 30 31 29 28 27 25 23 23 23 24 25 25 24 24 24 23 21 18 18 19 19 20 20 18 17 17 17 17 17 17 15 14 14 16 18 20 19 15 12 13 13 13 13 13 13 14 15 16 17 18 20 22 23 24 25 25 25 26 27 27 27 27 28 28 29 30
4 4 3 3 3 3 2 3 5 7 6 10 9 8 11 17 26 31 29 31 36 36 32 31 31 28 24 24 26 25 25 25 25 25 24 22 20 18 18 18 19 20 20 18 18 18 17 17 17 17 16 15 14 15 17 20 20 16 12 12 12 12 13 13 13 14 15 16 17 18 19 21 22 24 25 25 25 25 26 27 27 27 27 28 29 30
7 8 4 4 5 5 5 9 17 21 19 15 19 28 33 35 37 35 33 35 38 39 35 33 32 30 26 25 27 26 25 25 26 25 25 23 20 18 17 18 19 20 20 18 18 18 18 18 18 17 17 15 14 15 16 19 20 17 13 12 12 12 12 12 13 13 14 15 16 18 19 20 21 22 23 24 25 26 26 27 27 27 27 28 28 29
10 9 4 2 3 5 10 20 28 33 34 33 34 37 39 39 39 37 36 37 37 36 35 33 32 30 27 26 26 27 27 27 27 26 25 22 20 18 18 18 19 19 20 19 18 17 17 19 19 17 17 16 15 15 15 18 20 18 13 12 12 12 12 12 12 13 14 15 16 17 18 19 20 20 21 21 21 22 24 25 26 26 27 27 27 28
6 7 6 4 3 3 8 15 20 25 30 32 36 39 40 38 36 33 31 32 33 33 32 30 29 29 28 27 28 29 29 28 27 26 24 21 20 19 18 18 19 19 20 19 18 18 18 19 20 18 17 16 16 15 15 17 19 18 14 12 12 12 12 12 12 13 13 14 15 16 18 19 20 21 21 21 20 20 21 22 23 25 26 26 26 26
1 3 3 4 5 5 9 18 29 34 33 34 38 40 37 32 29 27 27 31 33 33 32 31 29 29 29 30 30 30 29 27 25 24 22 20 19 19 18 19 19 19 19 19 18 18 18 19 20 19 17 16 16 16 16 17 18 18 15 13 12 12 12 12 12 13 13 14 15 16 17 19 21 22 22 22 22 22 22 22 22 22 23 23 23 23
4 3 4 3 5 8 11 22 32 29 25 29 34 31 27 27 28 28 31 34 35 35 35 33 32 31 32 32 30 28 27 25 22 20 20 20 20 19 19 18 18 19 19 19 18 18 18 19 20 20 18 16 16 16 16 16 18 19 15 12 12 13 12 12 12 13 13 13 14 16 17 18 20 21 22 22 22 21 20 20 21 21 20 19 18 17
6 5 4 2 4 7 9 18 22 12 10 26 35 31 29 30 29 30 36 40 40 40 37 35 33 31 29 27 25 24 24 23 21 19 20 21 20 19 18 18 18 19 19 19 19 18 18 19 20 20 18 17 17 17 16 16 17 18 15 12 12 13 13 13 12 12 13 13 14 15 16 17 18 20 21 22 22 21 19 17 17 18 18 17 16 14
15 13 10 7 8 13 21 33 32 17 17 34 42 38 35 34 33 37 42 42 39 35 32 30 29 27 25 23 21 21 23 23 21 19 21 21 20 19 19 19 19 19 19 19 19 18 17 18 20 19 18 17 17 17 15 15 16 16 14 12 11 12 13 13 12 12 13 13 13 15 16 17 18 19 20 21 22 22 20 18 16 15 15 15 15 14
Wind_Direction
56 71 41 32 326 313 297 294 227 232 204 128 96 95 134 140 282 265 246 240 113 65 276 246 252 259 242 232 213 197 199 217 220 274 356 358 4 348 335 351 350 351 354 348 340 335 335 337 338 339 342 348 351 348 347 350 355 359 0 359 358 1 4 2 359 360 3 5 5 5 6 8 9 10 10 10 10 10 10 7 4 5 3 0 1 359
60 71 16 341 309 317 311 320 346 344 37 70 92 91 87 78 277 266 232 256 98 85 278 313 341 284 256 245 214 189 191 218 213 201 2 3 358 339 341 352 348 345 347 348 343 338 340 340 339 340 344 349 351 348 347 350 356 359 358 358 359 0 3 3 360 360 3 7 7 5 5 6 7 9 9 8 9 9 10 8 5 7 5 3 4 0
45 44 325 317 347 26 20 14 37 47 46 40 69 101 52 318 277 298 330 317 90 113 278 352 357 294 273 256 212 188 194 218 204 176 20 5 351 347 358 352 340 341 348 351 345 341 344 341 339 341 346 350 348 346 345 347 355 359 356 356 359 1 2 2 1 1 3 6 6 6 6 5 6 9 9 9 8 8 9 8 7 8 7 6 5 2
53 345 314 320 7 44 29 19 38 48 46 36 53 90 278 311 27 315 307 308 282 197 272 348 339 295 297 302 208 200 205 208 191 187 313 351 348 357 2 345 332 341 351 351 344 343 344 339 339 343 346 347 343 343 344 347 356 358 355 356 359 0 2 3 1 0 2 3 3 4 6 6 7 9 9 10 10 10 9 8 8 9 8 7 6 4
99 310 319 335 27 58 43 18 34 47 21 356 78 106 249 293 286 245 281 316 332 340 328 353 339 302 317 355 212 217 212 198 194 207 266 319 338 357 358 337 326 339 349 347 341 341 341 335 338 342 344 345 342 342 344 347 354 356 355 356 358 360 2 4 2 360 359 0 0 1 3 4 6 8 8 8 8 9 9 7 8 9 7 6 6 6
50 344 354 26 35 58 62 22 24 69 37 331 288 162 203 228 243 290 327 3 18 351 314 52 16 304 312 314 236 236 205 205 213 225 265 303 327 351 352 331 318 332 341 341 337 336 335 331 334 339 343 344 343 343 343 345 351 354 354 357 358 360 3 4 2 359 358 359 360 0 2 3 4 5 6 6 5 5 5 5 8 9 8 7 5 5
11 1 26 54 37 48 49 15 337 95 83 357 285 175 169 152 135 342 16 48 54 303 281 86 83 284 312 303 245 233 188 220 237 245 262 291 317 343 344 323 313 327 334 336 334 333 333 329 333 341 344 344 343 343 342 344 352 355 356 358 359 360 3 3 1 359 358 358 359 1 3 5 3 2 3 4 4 4 3 5 7 9 9 7 5 4
347 3 18 32 40 41 26 350 292 85 86 340 225 149 149 148 142 112 85 88 199 270 313 9 105 275 300 272 248 217 169 227 257 265 264 279 304 331 336 321 311 319 329 335 333 334 333 328 335 343 344 343 342 342 343 347 353 355 356 358 360 360 3 2 360 359 358 357 359 1 3 4 2 1 0 2 3 3 3 5 7 8 8 7 5 3
312 10 15 30 33 18 352 285 269 113 85 269 208 154 169 172 147 112 92 97 263 38 342 313 40 344 282 273 276 263 194 257 273 267 262 274 294 318 330 323 307 311 327 335 332 334 333 328 337 343 341 340 341 344 347 350 353 354 355 359 360 359 2 2 359 358 358 358 359 1 2 2 1 359 359 0 2 3 4 5 7 8 8 7 5 3
261 46 39 66 51 331 267 270 261 160 286 269 180 125 87 92 90 88 96 93 22 45 283 278 12 57 285 283 291 320 268 262 269 267 262 273 286 310 331 322 297 305 328 333 331 333 331 329 336 340 338 339 341 345 349 349 353 356 356 359 360 359 1 1 359 358 358 358 360 1 2 360 359 358 358 359 1 3 3 4 6 7 7 6 5 3
314 58 24 85 67 274 260 281 275 197 278 302 117 65 46 47 46 62 77 86 58 15 262 254 164 97 299 284 242 226 232 219 240 277 273 273 278 307 335 319 290 304 327 328 329 331 328 328 333 337 338 339 339 342 347 349 353 358 356 358 359 358 360 359 358 358 357 358 360 0 0 359 358 357 357 358 0 2 2 4 5 6 6 6 5 3
356 26 345 285 303 306 277 306 333 326 358 20 35 25 36 14 15 28 360 39 66 322 260 243 234 134 232 274 258 241 241 215 219 254 267 272 275 309 334 316 287 305 323 322 326 328 326 327 333 338 339 339 339 340 345 349 354 357 356 356 357 356 359 359 357 357 357 359 359 359 359 359 358 357 357 358 360 1 2 3 4 4 4 5 4 2
348 332 318 297 317 357 26 19 350 355 19 31 24 30 50 8 6 16 342 8 54 274 249 232 283 231 229 257 261 248 247 236 230 242 256 267 273 303 329 315 286 299 317 318 323 325 324 329 334 336 337 338 339 339 342 349 353 355 354 354 355 355 357 357 355 356 357 358 358 357 358 358 357 357 358 358 359 1 1 1 3 3 2 2 2 1
340 301 336 348 345 12 42 67 356 332 360 21 21 47 75 64 27 354 317 333 324 280 280 288 219 252 287 275 248 224 229 239 246 254 258 263 270 294 321 312 281 289 313 315 319 322 324 331 333 332 334 337 338 338 340 346 350 352 351 352 352 352 355 355 354 355 356 357 357 355 356 357 356 356 357 358 358 360 1 1 3 2 2 1 360 359
20 309 331 21 332 358 34 119 161 197 318 313 174 109 98 111 106 284 266 283 293 285 298 321 24 250 293 282 227 209 224 247 256 260 256 254 261 288 313 301 270 281 310 313 315 320 325 331 330 328 331 336 338 339 340 343 346 348 348 349 350 351 354 353 353 354 354 356 355 354 355 356 355 355 356 356 357 358 360 0 1 2 1 1 359 358
93 263 261 225 300 349 90 223 170 116 14 279 126 83 48 176 141 156 216 209 250 302 296 304 282 250 262 272 253 226 250 262 262 258 250 249 260 291 306 286 261 280 307 311 313 320 328 329 326 326 328 334 338 340 341 342 343 344 344 345 348 351 351 351 352 352 353 354 353 353 355 354 354 355 354 353 355 357 359 360 360 0 1 0 359 359
59 276 276 351 330 172 133 228 218 108 18 335 44 37 259 179 132 116 275 257 21 357 281 295 305 294 311 317 310 323 292 281 278 262 246 249 269 298 300 275 257 281 304 308 313 322 328 325 323 323 326 332 338 340 342 343 342 340 341 343 347 349 350 351 351 351 352 352 352 353 354 353 353 354 353 352 353 355 357 358 358 359 360 360 358 358
120 281 286 277 258 255 162 233 303 84 130 82 52 236 220 90 94 106 314 335 26 39 277 311 298 296 333 323 311 330 306 290 290 263 245 254 274 295 294 265 250 282 299 304 314 323 324 321 320 322 326 332 337 339 341 342 340 338 338 342 347 347 350 351 350 351 352 351 352 352 353 352 352 353 352 350 351 353 354 355 357 358 358 359 357 357
109 315 293 248 196 270 262 55 339 325 144 114 159 215 137 74 357 23 71 351 6 315 294 305 293 281 243 244 295 312 296 291 292 271 254 261 274 291 285 252 249 284 295 304 318 322 319 317 319 323 328 333 335 336 337 338 338 338 338 343 347 347 348 349 349 350 352 352 351 351 351 351 351 352 351 350 350 351 352 354 355 356 357 358 356 356
112 90 290 283 242 305 3 55 288 294 323 36 23 331 26 127 175 233 136 157 168 288 293 310 318 295 234 222 253 275 282 288 288 283 272 271 279 289 275 253 262 285 298 313 320 318 314 315 321 326 329 333 335 334 332 334 337 339 339 343 347 347 347 349 351 351 352 352 351 350 351 350 350 351 350 350 350 350 351 353 353 353 355 356 356 355
16 118 261 297 329 341 320 246 191 182 165 67 31 356 330 348 111 147 215 157 141 168 248 307 310 283 259 226 222 255 274 273 272 274 276 282 286 282 270 266 271 284 304 318 317 312 311 315 322 327 328 332 334 332 330 333 338 340 339 342 347 347 346 349 352 352 352 352 350 350 350 350 350 350 349 349 350 350 351 351 352 352 353 354 355 355
4 124 239 297 331 309 250 241 186 164 165 155 152 188 191 148 88 67 315 292 108 154 191 202 288 275 268 227 214 242 261 276 291 288 282 292 292 277 275 274 271 288 310 312 307 307 312 317 323 325 327 331 333 331 331 335 339 340 339 341 346 346 346 350 353 353 352 351 350 349 350 350 350 350 349 349 350 351 351 351 351 351 351 353 353 354
138 107 257 279 276 253 261 271 117 98 171 154 166 180 153 138 120 120 230 267 330 279 210 152 248 267 265 234 219 232 274 312 321 306 286 289 290 280 280 275 268 292 305 299 300 308 316 321 323 324 327 332 333 332 334 339 341 340 338 340 344 345 347 350 352 352 350 350 349 349 350 350 350 351 350 350 351 351 352 352 351 350 350 351 352 353
104 96 14 292 289 303 316 320 360 15 51 141 250 187 153 164 137 144 173 179 277 274 241 118 247 269 274 240 223 249 315 328 328 318 295 283 292 295 281 266 267 289 291 286 297 313 321 322 322 324 328 331 332 332 336 341 342 339 337 339 342 344 346 348 350 351 350 350 349 349 350 350 351 352 352 351 351 352 352 352 351 350 350 350 350 351
323 164 47 339 335 343 348 349 346 350 17 213 242 206 157 122 103 113 126 90 335 241 177 153 243 267 272 245 242 291 323 325 323 326 313 291 301 306 278 261 274 285 282 283 302 318 322 321 322 325 329 331 331 332 337 341 341 340 337 338 341 343 345 347 348 349 349 350 349 349 351 351 352 353 353 353 352 352 353 352 351 351 350 349 350 350
240 207 126 84 31 335 320 317 312 307 294 256 193 159 153 127 128 142 111 92 244 236 165 171 245 277 288 297 307 312 323 323 321 327 326 311 310 307 278 275 286 287 284 291 311 319 320 321 323 325 330 331 330 332 336 339 340 339 336 336 339 341 343 345 346 347 349 349 349 349 351 352 353 354 353 353 354 354 354 353 352 351 351 350 350 350
87 263 211 173 183 211 236 252 259 302 301 283 271 237 202 172 149 129 115 170 202 213 224 229 242 275 291 299 311 314 320 322 317 323 331 331 327 316 303 303 300 296 295 301 313 318 319 321 322 325 331 331 329 331 334 337 338 337 335 335 337 339 341 343 344 347 349 349 349 349 351 352 353 354 354 353 354 354 354 354 353 352 352 352 351 351
84 309 260 197 219 235 241 258 273 299 273 263 265 249 202 184 159 150 190 213 170 39 280 249 226 272 286 293 303 307 312 315 310 315 327 342 343 330 320 314 304 296 298 305 312 315 318 321 321 326 331 329 327 329 331 334 335 335 334 333 335 338 339 340 343 347 349 349 349 350 351 352 353 354 354 354 354 355 356 356 355 354 354 353 353 354
111 267 253 199 249 256 251 264 271 264 259 250 243 242 226 190 177 194 222 216 160 224 259 263 283 284 280 288 295 295 296 298 300 306 322 341 340 330 319 311 302 297 302 306 311 315 318 320 321 326 330 327 325 326 328 331 334 334 333 332 334 337 338 339 343 347 349 348 348 350 350 351 353 353 354 354 355 356 357 357 356 356 357 356 356 357
122 253 245 216 288 282 268 272 261 226 260 272 245 231 223 206 200 214 233 219 193 237 256 269 283 280 274 275 279 285 291 293 297 309 326 336 333 322 313 310 304 302 305 308 312 316 318 318 321 326 329 324 321 323 326 330 333 333 332 331 334 337 337 339 343 347 348 347 347 349 349 350 352 353 354 356 356 357 359 358 358 359 359 358 358 360
148 268 262 97 331 301 291 305 294 217 242 276 276 255 224 222 228 229 238 226 211 248 260 267 278 278 274 268 269 282 293 298 307 319 328 332 329 319 313 312 308 304 306 311 315 316 316 317 321 326 327 322 319 322 326 330 333 331 331 332 334 336 336 338 343 346 346 345 346 347 348 350 352 353 354 356 357 358 360 359 360 0 0 360 1 2
160 281 334 58 9 292 292 340 321 301 276 274 284 279 232 211 227 224 219 199 194 233 267 285 282 273 280 291 289 294 303 310 315 320 325 327 326 320 313 311 309 306 309 315 316 314 314 316 321 325 324 319 320 323 327 333 334 331 331 332 333 336 336 337 341 344 344 344 345 346 348 350 352 353 355 356 357 359 359 359 360 1 2 3 3 3
143 118 350 44 354 273 291 326 314 319 349 318 277 247 201 206 233 247 248 217 203 212 263 274 264 269 295 318 312 307 312 315 316 318 321 323 322 316 309 308 307 308 314 316 314 312 312 315 322 324 321 318 321 327 334 339 336 332 332 333 334 336 335 335 339 343 343 343 344 346 348 350 351 353 356 357 357 357 358 359 1 2 3 4 4 5
113 107 176 160 185 272 295 319 333 4 10 283 239 191 199 229 222 227 252 240 218 207 224 252 269 282 296 301 296 295 301 308 312 311 312 316 315 309 303 303 304 309 315 316 314 313 310 313 322 325 320 320 325 331 339 341 336 332 331 331 333 333 331 333 338 341 341 343 345 346 347 349 351 355 357 357 356 357 357 359 1 2 3 4 4 5
124 121 215 207 180 267 309 351 5 5 249 261 272 231 224 219 183 205 256 260 242 237 244 260 273 277 281 285 285 289 297 305 307 303 304 310 309 300 295 297 303 310 315 317 316 312 308 312 322 326 321 322 327 332 337 339 335 331 330 329 331 330 328 331 337 339 341 342 344 346 347 349 352 355 357 357 356 356 357 359 1 1 1 3 4 4
143 153 220 232 193 272 352 26 347 282 281 294 311 294 237 202 120 251 286 273 247 235 237 248 262 268 275 284 288 292 298 303 300 296 301 308 304 294 292 297 307 313 317 321 319 311 306 314 325 329 323 323 328 330 335 337 334 331 330 328 328 327 327 331 335 337 340 342 344 347 347 349 352 355 356 356 356 356 357 358 360 360 360 1 3 3
137 142 132 311 234 220 331 268 261 305 315 316 311 219 176 193 182 157 284 276 257 240 236 238 260 270 275 286 294 296 300 304 300 296 305 313 300 294 296 302 312 317 319 324 322 310 308 318 328 332 326 324 326 331 339 341 334 330 330 326 325 326 327 330 334 337 341 343 345 347 348 349 351 354 354 355 355 356 357 359 359 360 360 360 1 3
112 138 151 199 275 93 60 306 322 348 320 280 256 247 190 167 174 141 148 287 281 256 238 225 243 269 278 289 296 299 308 314 302 301 321 324 306 301 304 307 314 319 322 325 321 310 310 321 331 335 330 325 326 334 343 343 332 329 330 324 324 327 326 329 333 337 341 344 345 347 348 348 351 352 352 355 356 356 357 359 359 360 360 359 359 2
66 59 104 108 298 21 87 261 259 264 267 257 252 243 176 160 159 108 33 293 273 228 216 216 248 274 282 288 291 297 321 320 296 310 327 325 312 307 310 312 316 319 320 322 319 313 313 321 331 335 333 329 327 332 340 342 333 329 329 324 323 326 326 329 334 337 341 344 346 347 347 347 349 351 351 354 355 356 357 358 358 358 359 359 359 0
57 37 84 127 245 216 146 207 242 244 254 259 259 236 181 168 141 67 344 289 251 217 226 243 272 284 288 291 290 275 246 269 288 309 317 315 309 308 309 311 313 315 316 318 317 314 313 318 326 332 332 329 324 326 335 340 335 328 325 323 323 323 325 329 333 337 341 344 345 345 345 346 349 350 351 353 355 356 356 356 357 357 358 0 0 0
93 181 160 166 209 200 183 232 272 258 252 263 262 191 162 149 93 52 279 274 272 279 282 282 286 291 294 292 283 260 265 281 291 300 305 305 303 303 303 306 310 312 313 313 313 312 310 313 322 329 330 325 319 321 330 337 336 328 323 322 321 322 325 329 331 335 340 342 344 344 344 346 348 350 352 353 353 355 355 355 356 357 359 1 1 1
218 158 146 168 199 197 180 202 278 282 261 225 157 151 158 148 305 251 264 288 296 296 298 296 292 293 296 292 284 281 288 293 293 295 299 301 299 298 297 300 306 308 308 309 309 309 307 307 316 327 330 324 319 319 325 332 335 329 321 319 320 320 324 328 330 334 338 340 343 344 344 346 348 350 353 354 353 353 354 356 357 359 0 2 1 3
189 173 228 213 187 165 157 195 301 292 245 172 147 137 159 185 262 281 289 297 297 296 298 296 292 294 296 294 294 295 295 294 292 294 299 299 296 294 292 296 303 305 304 306 306 305 304 304 312 326 330 326 322 319 320 327 332 330 321 317 317 318 323 327 329 332 336 339 342 344 345 347 349 350 353 355 354 353 354 356 359 0 1 3 3 6
196 180 220 239 196 158 151 187 225 256 224 171 182 249 247 250 275 288 291 293 295 296 296 292 293 297 298 296 300 300 295 293 293 297 301 298 293 291 291 294 301 301 301 303 303 302 303 303 309 322 329 326 322 318 316 321 328 329 322 314 314 317 321 324 326 330 333 337 340 342 345 348 350 352 354 355 354 353 354 356 359 1 2 4 5 9
211 189 191 242 227 198 202 234 254 272 278 264 261 272 275 278 285 289 287 287 290 294 295 293 294 299 300 299 299 297 294 294 297 299 300 296 291 290 291 293 298 300 300 300 300 300 302 303 307 317 324 323 319 317 316 319 324 327 321 310 311 316 318 320 324 326 331 335 338 341 344 348 350 353 356 357 354 352 353 356 358 0 3 5 7 13
226 204 190 233 254 272 266 256 258 268 274 276 277 279 282 286 290 292 290 288 290 295 298 295 295 297 299 298 296 294 295 298 298 298 297 294 290 289 290 292 296 299 299 298 299 300 300 302 305 311 318 319 316 316 317 317 320 324 318 308 310 314 315 318 321 323 329 335 337 340 343 345 348 353 359 1 358 354 354 356 357 359 4 6 9 14
251 209 213 245 277 306 276 258 257 263 269 277 283 284 285 289 293 293 291 290 293 299 300 297 294 295 296 295 294 295 297 298 296 295 294 291 288 288 290 293 296 298 299 299 299 297 296 300 303 307 313 317 315 315 317 315 317 321 317 307 307 312 313 315 319 322 327 333 336 339 341 342 347 354 359 3 4 1 359 359 360 2 5 6 9 12
256 165 220 240 227 233 259 270 274 275 277 281 283 283 285 293 296 292 291 293 297 301 300 297 294 293 294 296 296 295 295 294 293 293 292 289 287 287 290 293 296 297 297 297 295 294 294 297 300 303 310 314 313 313 315 313 313 316 316 309 305 308 311 313 316 320 326 332 335 337 340 344 348 353 357 3 8 7 3 2 4 8 8 8 11 11
223 202 218 216 251 265 269 274 277 279 283 287 287 286 289 295 295 293 294 297 300 301 300 297 294 293 294 296 296 292 291 292 292 292 291 287 286 287 290 294 295 295 296 295 294 292 292 293 297 301 308 314 313 311 312 312 309 311 312 308 304 305 308 310 314 318 323 330 335 337 341 346 349 351 354 0 10 15 12 5 4 9 13 14 16 14
213 221 207 171 280 277 266 273 280 287 289 288 292 296 298 299 298 295 297 301 303 304 304 300 297 295 293 294 295 292 289 292 295 292 287 285 285 287 290 292 292 293 295 294 291 289 289 291 294 299 307 314 316 314 313 311 307 307 308 303 300 302 304 307 311 315 320 327 333 336 341 346 349 351 354 358 5 15 22 19 10 8 13 17 19 19
217 221 207 190 232 256 268 278 283 281 274 284 293 299 300 301 299 295 299 305 308 309 309 304 300 298 295 294 296 293 290 293 294 289 284 284 285 285 287 289 290 292 294 292 289 287 287 288 292 297 305 314 319 320 317 311 305 305 304 298 296 299 300 302 307 311 316 324 330 334 340 345 348 352 355 358 2 6 15 23 24 19 17 17 16 19